Simultaneous Nadir Overpasses (SNOs) Predictions

Prediction of SNOs between METOP-B and NOAA-19 Satellite Orbit:

Table of predicted SNOs for the next 14.0 days since TLE Epoch: 8/21/2021
Index Date (METOP-B) Time (METOP-B) Lat,Lon (METOP-B) SZA (METOP-B ) Date (NOAA-19) Time (NOAA-19) Lat,Lon (NOAA-19) SZA (NOAA-19 ) Distance(km) Time Diff (sec)
1 08/28/2021 04:25:30 80.61, 143.55 72.20 08/28/2021 04:24:27 80.60, 143.58 72.17 1.20 63
2 08/28/2021 05:16:11 -80.61, -49.20 107.80 08/28/2021 05:15:29 -80.60, -49.09 107.82 2.19 42
3 08/28/2021 06:06:52 80.60, 118.07 72.21 08/28/2021 06:06:27 80.60, 118.18 72.20 1.96 25
4 08/28/2021 06:57:33 -80.60, -74.67 107.80 08/28/2021 06:57:29 -80.60, -74.50 107.79 3.25 4
5 08/28/2021 07:48:14 80.60, 92.59 72.21 08/28/2021 07:48:27 80.60, 92.77 72.23 3.27 13
6 08/28/2021 08:38:54 -80.61, -99.82 107.74 08/28/2021 08:39:29 -80.59, -99.91 107.76 2.65 35
7 08/28/2021 09:29:35 80.61, 67.45 72.26 08/28/2021 09:30:27 80.59, 67.37 72.26 2.27 52



Historial Predications of SNOs between METOP-B and NOAA-19
